This is the latest recevied weather packets stored in our database for station/object F4ETJ-1. If no packets are shown the sender has not sent any weather packets the latest 10 day(s).
| Time | Temp. | Humidity | Pressure | Rain* | Wind** | Luminosity | Snow |
|---|---|---|---|---|---|---|---|
| 1787747192 | 31.67° C | 46% | 1005.4 hPa | 0 mm | - | - | - |
| 1787746831 | 31.11° C | 48% | 1005.7 hPa | 0 mm | - | - | - |
| 1787746471 | 30.56° C | 47% | 1005.9 hPa | 0 mm | - | - | - |
| 1787746111 | 30.56° C | 48% | 1006.1 hPa | 0 mm | - | - | - |
| 1787745750 | 30.56° C | 48% | 1006.2 hPa | 0 mm | - | - | - |
| 1787745390 | 30.56° C | 47% | 1006.3 hPa | 0 mm | - | - | - |
| 1787745030 | 30.56° C | 51% | 1006.4 hPa | 0 mm | - | - | - |
| 1787744669 | 30° C | 51% | 1006.5 hPa | 0 mm | - | - | - |
| 1787744309 | 30° C | 52% | 1006.6 hPa | 0 mm | - | - | - |
| 1787743949 | 29.44° C | 54% | 1006.7 hPa | 0 mm | - | - | - |
| 1787743588 | 29.44° C | 54% | 1006.8 hPa | 0 mm | - | - | - |
| 1787743228 | 29.44° C | 55% | 1006.8 hPa | 0 mm | - | - | - |
| 1787742868 | 28.33° C | 57% | 1006.9 hPa | 0 mm | - | - | - |
| 1787742507 | 27.78° C | 58% | 1006.9 hPa | 0 mm | - | - | - |
| 1787742147 | 27.22° C | 58% | 1007 hPa | 0 mm | - | - | - |
| 1787741787 | 27.22° C | 59% | 1007.3 hPa | 0 mm | - | - | - |
| 1787741426 | 27.22° C | 58% | 1007.4 hPa | 0 mm | - | - | - |
| 1787741066 | 27.78° C | 58% | 1007.6 hPa | 0 mm | - | - | - |
| 1787740706 | 27.22° C | 58% | 1007.6 hPa | 0 mm | - | - | - |
| 1787740345 | 27.22° C | 60% | 1007.7 hPa | 0 mm | - | - | - |
| 1787739985 | 27.78° C | 60% | 1007.8 hPa | 0 mm | - | - | - |
| 1787739624 | 27.22° C | 62% | 1007.9 hPa | 0 mm | - | - | - |
| 1787739264 | 27.22° C | 63% | 1008 hPa | 0 mm | - | - | - |
| 1787738904 | 26.67° C | 64% | 1008.2 hPa | 0 mm | - | - | - |
| 1787738543 | 26.67° C | 64% | 1008.4 hPa | 0 mm | - | - | - |
* Rain latest hour (hover to see other rain measurements)
** Current wind speed in m/s (hover to see current wind gust speed)